Regional Weather Roundup
Issued by NWS Bismarck, ND

Home | Current Version | Previous Version | Text Only | Print | Product List | Glossary On
Versions: 1 2 3 4 5 6 7 8 9 10 11 12 13 14 15 16 17 18 19 20 21 22 23 24 25 26 27 28 29 30 31 32 33 34 35 36 37 38 39 40 41 42 43 44 45 46 47 48 49 50
679
ASUS43 KBIS 030410
RWRBIS

NWR BROADCAST TEXT
NATIONAL WEATHER SERVICE BISMARCK ND
1100 PM CDT MON MAY 02 2016

NOTE: "FAIR" INDICATES FEW OR NO CLOUDS BELOW 12,000 FEET WITH NO
SIGNIFICANT WEATHER AND/OR OBSTRUCTIONS TO VISIBILITY.


CITY           SKY/WX    TMP DP  RH WIND       PRES   REMARKS
WILLISTON      CLOUDY    47  36  65 N3        30.01R
MINOT          CLOUDY    58  35  42 S5        29.98S
MINOT AFB      CLOUDY    52  37  58 SW9       29.97S HAZE
BISMARCK       PTCLDY    50  43  77 CALM      30.02R
DICKINSON      CLEAR     47  32  56 E3        30.02R
GARRISON         N/A     54  36  50 CALM      30.00S
HETTINGER ARPT CLEAR     43  33  68 NE7       30.05R
JAMESTOWN      CLEAR     42  35  76 CALM      30.01R
BEACH          FAIR      45  32  61 S6        30.08R
CARRINGTON     FAIR      46  36  66 SW5       30.03S
HAZEN          FAIR      41  36  81 CALM      30.03S
LINTON         FAIR      45  45 100 SE5       30.04R
MANDAN         FAIR      50  41  71 S5        30.03R
OAKES            N/A    N/A N/A N/A MISG        N/A
RUGBY          FAIR      50  37  62 S7        29.98S
STANLEY        FAIR      48  32  53 CALM      30.03S
TIOGA          FAIR      46  32  57 W3        30.06R
WATFORD CITY   FAIR      48  37  66 CALM      30.02R
$$

CITY           SKY/WX    TMP DP  RH WIND       PRES   REMARKS
GRAND FORKS    CLOUDY    56  38  50 W12       29.95S
GRAND FORKS AF NOT AVBL
DEVILS LAKE    CLOUDY    53  40  61 SW10      29.99S
FARGO          CLEAR     53  35  50 W9        29.97S
CANDO          FAIR      50  36  57 SW10      30.00S
CAVALIER       FAIR      57  37  47 W10       29.93S
GRAFTON        FAIR      55  37  50 W12       29.96R
GWINNER        FAIR      48  37  66 W9        30.01R
LANGDON        FAIR      50  34  53 SW12      29.97S
ROLLA          CLOUDY    50  34  53 SW10      29.99R
WALHALLA       FAIR      57  36  44 W7        29.94S
$$

CITY           SKY/WX    TMP DP  RH WIND       PRES   REMARKS
ABERDEEN       CLEAR     46  38  73 CALM      30.02R
MOBRIDGE       CLEAR     48  44  86 E6        29.99S
BUFFALO          N/A     50  33  52 NE8       29.99R
RAPID CITY     CLEAR     42  36  79 N7        30.05R
GLASGOW        CLEAR     55  41  59 NE10      30.03R
SIDNEY         CLOUDY    52  34  50 NW3       30.01S
WOLF POINT     CLEAR     54  39  57 CALM      30.02R
GLENDIVE       CLOUDY    57  34  41 N5        30.06R
MILES CITY     CLEAR     55  43  63 NW9       30.04R
BAKER          CLEAR     47  34  60 S9        30.06R
$$

CITY           SKY/WX    TMP DP  RH WIND       PRES   REMARKS
BILLINGS       CLEAR     59  35  40 E7        30.13R
GREAT FALLS    CLEAR     56  33  42 SE7       30.10R
REGINA         PTCLDY    55  28  35 S3        30.01R
ESTEVAN        PTCLDY    50  34  53 NW5       29.99R
$$





USA.gov is the U.S. government's official web portal to all federal, state and local government web resources and services.